Stations météo

Publicité
Bezier-Vias, France (7638): Température de l'air & dewpoint: 17.02.2017 01:00:00 - 23.02.2017 01:00:00 (CET)Bezier-Vias, France (7638): Vitesse du vent & gusts: 17.02.2017 01:00:00 - 23.02.2017 01:00:00 (CET)Bezier-Vias, France (7638): Direction du vent: 17.02.2017 01:00:00 - 23.02.2017 01:00:00 (CET)Bezier-Vias, France (7638): reduced air pressure: 17.02.2017 01:00:00 - 23.02.2017 01:00:00 (CET)Bezier-Vias, France (7638): visibility: 17.02.2017 01:00:00 - 23.02.2017 01:00:00 (CET)Bezier-Vias, France (7638): Quantités de précipitations: 17.02.2017 01:00:00 - 23.02.2017 01:00:00 (CET)
Date & Time tt [°C] td [°C] ff [km/h] ff [knt] fx [km/h] fx [knt] dd ppp [hPa] vv [km] rr [mm]
23.02.2017 01:00:00 6,6 5,5 4 2 10 5 NW 1018,2 15 0,0
23.02.2017 00:00:00 6,6 5,5 4 2 6 3 N 1018,5 8 0,0
22.02.2017 23:00:00 7,0 5,8 6 3 8 4 WNW 1018,7 8 0,0
22.02.2017 22:00:00 8,0 6,6 4 2 6 3 N 1018,9 5 0,0
22.02.2017 21:00:00 9,9 8,2 3 2 14 8 W 1019,0 9 0,0
22.02.2017 20:00:00 12,0 10,1 9 5 16 9 SSW 1018,9 14 0,0
22.02.2017 19:00:00 12,4 9,4 7 4 18 10 SSW 1018,8 34 0,0
22.02.2017 18:00:00 14,4 8,6 10 6 21 11 SSW 1018,7 46 0,0
22.02.2017 17:00:00 16,1 8,3 12 7 25 14 S 1018,8 58 0,0
22.02.2017 16:00:00 17,7 9,8 14 8 27 14 SSW 1019,0 60 0,0
22.02.2017 15:00:00 20,1 8,1 14 7 22 12 W 1019,4 60 0,0
22.02.2017 14:00:00 18,9 7,6 13 7 24 13 W 1020,3 60 0,0
22.02.2017 13:00:00 17,4 7,7 14 8 24 13 W 1021,2 60 0,0
22.02.2017 12:00:00 16,0 7,2 14 8 22 12 W 1021,8 60 0,0
22.02.2017 11:00:00 13,0 7,9 12 6 18 10 W 1022,0 58 0,0
22.02.2017 10:00:00 11,1 8,1 5 3 9 5 W 1022,4 45 -
22.02.2017 09:00:00 7,8 7,0 5 3 8 4 WNW 1022,6 19 0,2
22.02.2017 08:00:00 4,0 3,0 5 3 9 5 W 1022,1 19 0,0
22.02.2017 07:00:00 5,0 4,0 5 3 8 5 NW 1021,8 60 0,0
22.02.2017 06:00:00 5,5 4,5 8 4 14 8 WNW 1021,9 60 0,0
22.02.2017 05:00:00 5,9 5,0 8 4 11 6 W 1022,2 55 0,0
22.02.2017 04:00:00 5,0 3,8 8 4 11 6 WNW 1022,3 11 0,0
22.02.2017 03:00:00 5,4 4,0 5 3 13 7 W 1022,6 17 0,0
22.02.2017 02:00:00 6,5 4,7 5 3 13 7 N 1022,7 19 0,0
22.02.2017 01:00:00 7,2 5,5 5 3 13 7 N 1022,9 36 0,0
22.02.2017 00:00:00 8,1 5,9 9 5 20 11 W 1022,7 20 0,0
21.02.2017 23:00:00 8,5 5,9 9 5 15 8 NW 1022,7 48 0,0
21.02.2017 22:00:00 10,2 6,5 10 6 16 9 W 1023,0 60 0,0
21.02.2017 21:00:00 12,0 6,9 8 4 35 19 W 1023,0 60 0,0
21.02.2017 20:00:00 12,5 7,2 20 11 33 18 N 1022,3 60 0,0
21.02.2017 19:00:00 13,0 7,2 22 12 31 17 NNW 1022,2 60 0,0
21.02.2017 18:00:00 14,4 7,4 13 7 35 19 N 1022,1 60 0,0
21.02.2017 17:00:00 15,7 7,7 28 15 41 22 NNW 1021,6 60 0,0
21.02.2017 16:00:00 16,9 7,8 30 16 51 28 NNW 1021,5 60 0,0
21.02.2017 15:00:00 17,0 7,9 29 16 44 24 NNW 1021,7 60 0,0
21.02.2017 14:00:00 18,3 8,5 28 15 44 24 NNW 1022,3 60 0,0
21.02.2017 13:00:00 17,7 7,7 30 16 42 23 NNW 1023,1 60 0,0
21.02.2017 12:00:00 16,2 8,4 23 12 32 18 W 1024,1 60 0,0
21.02.2017 11:00:00 15,2 7,7 20 11 37 20 NW 1024,4 60 0,0
21.02.2017 10:00:00 12,4 7,5 16 9 26 14 W 1024,8 59 0,0
21.02.2017 09:00:00 10,0 6,3 18 10 24 13 W 1024,6 60 0,0
21.02.2017 08:00:00 7,1 4,9 8 4 22 12 W 1024,6 60 0,0
21.02.2017 07:00:00 7,2 5,3 14 8 19 10 W 1024,1 60 0,0
21.02.2017 06:00:00 6,5 4,7 10 5 17 9 W 1024,5 42 0,0
21.02.2017 05:00:00 6,0 4,2 11 6 15 8 W 1024,7 36 0,0
21.02.2017 04:00:00 6,1 4,1 11 6 21 11 W 1025,0 20 0,0
21.02.2017 03:00:00 5,7 3,7 16 8 21 11 WNW 1025,3 18 0,0
21.02.2017 02:00:00 6,2 3,7 3 1 27 14 W 1025,4 19 0,0
21.02.2017 01:00:00 7,2 4,2 15 8 29 15 NW 1025,6 20 0,0
21.02.2017 00:00:00 7,4 4,4 11 6 26 14 NNW 1025,8 34 0,0
20.02.2017 23:00:00 7,6 3,8 9 5 26 14 NW 1025,8 29 0,0
20.02.2017 22:00:00 8,6 4,4 14 8 32 17 WNW 1025,9 35 0,0
20.02.2017 21:00:00 9,1 4,5 14 7 26 14 W 1025,5 39 0,0
20.02.2017 20:00:00 9,4 4,2 20 11 27 15 W 1024,9 45 0,0
20.02.2017 19:00:00 11,1 3,9 23 12 37 20 WNW 1024,4 55 0,0
20.02.2017 18:00:00 13,0 4,4 25 14 42 23 WNW 1023,9 20 0,0
20.02.2017 17:00:00 14,8 4,8 29 16 45 24 WNW 1023,8 60 0,0
20.02.2017 16:00:00 15,4 4,7 30 16 51 27 W 1024,1 47 0,0
20.02.2017 15:00:00 15,6 4,0 30 16 48 26 WNW 1024,2 48 0,0
20.02.2017 14:00:00 15,4 4,1 27 14 47 25 W 1024,8 44 0,0
20.02.2017 13:00:00 15,1 3,9 28 15 43 23 W 1025,3 48 0,0
20.02.2017 12:00:00 14,0 4,6 27 15 44 24 W 1026,1 40 0,0
20.02.2017 11:00:00 12,3 4,0 27 15 43 23 W 1026,5 35 0,0
20.02.2017 10:00:00 10,8 4,5 23 12 42 23 W 1026,5 20 0,0
20.02.2017 09:00:00 8,6 4,8 28 15 42 23 WNW 1026,2 18 0,0
20.02.2017 08:00:00 7,3 5,1 26 14 39 21 W 1025,8 14 0,0
20.02.2017 07:00:00 7,2 5,0 19 11 29 16 WNW 1025,8 14 0,0
20.02.2017 06:00:00 6,0 2,6 9 5 14 7 W 1025,2 20 0,0
20.02.2017 05:00:00 6,8 3,4 11 6 22 12 W 1025,1 20 0,0
20.02.2017 04:00:00 6,4 3,7 16 9 21 12 WNW 1025,2 20 0,0
20.02.2017 03:00:00 6,0 3,7 12 7 19 11 WNW 1025,5 20 0,0
20.02.2017 02:00:00 6,9 3,9 13 7 23 12 WNW 1025,6 41 0,0
20.02.2017 01:00:00 6,4 3,9 12 7 19 10 W 1025,8 42 0,0
20.02.2017 00:00:00 6,4 4,1 9 5 12 7 W 1025,6 20 0,0
19.02.2017 23:00:00 7,1 3,9 11 6 14 8 W 1025,7 34 0,0
19.02.2017 22:00:00 8,1 4,9 9 5 18 10 W 1025,4 37 0,0
19.02.2017 21:00:00 9,8 5,2 16 8 27 15 WNW 1025,2 44 0,0
19.02.2017 20:00:00 11,3 5,6 16 9 24 13 WNW 1025,0 51 0,0
19.02.2017 19:00:00 12,4 5,5 17 9 24 13 W 1024,5 54 0,0
19.02.2017 18:00:00 14,2 7,9 14 7 29 15 WSW 1024,0 41 0,0
19.02.2017 17:00:00 14,9 8,4 19 10 28 15 W 1024,3 36 0,0
19.02.2017 16:00:00 15,5 8,2 15 8 30 16 WSW 1024,7 54 0,0
19.02.2017 15:00:00 15,4 6,9 19 10 29 16 WSW 1025,1 60 0,0
19.02.2017 14:00:00 15,6 7,9 13 7 27 15 WSW 1025,7 20 0,0
19.02.2017 13:00:00 15,2 8,2 12 7 22 12 WSW 1026,5 38 0,0
19.02.2017 12:00:00 13,6 8,4 7 4 15 8 SW 1027,4 6 0,0
19.02.2017 11:00:00 10,9 7,6 5 3 11 6 SW 1027,7 19 0,0
19.02.2017 10:00:00 8,5 6,5 2 1 6 3 WNW 1027,6 18 0,0
19.02.2017 09:00:00 6,4 5,8 2 1 5 3 NW 1027,1 11 0,2
19.02.2017 08:00:00 5,0 4,3 4 2 11 6 N 1026,6 11 0,0
19.02.2017 07:00:00 4,4 3,5 4 2 12 6 NNW 1026,0 8 0,0
19.02.2017 06:00:00 5,0 4,1 3 2 9 5 NW 1025,6 9 0,0
19.02.2017 05:00:00 5,1 4,2 4 2 11 6 N 1025,2 9 0,0
19.02.2017 04:00:00 5,7 4,8 7 4 17 9 N 1024,9 8 0,0
19.02.2017 03:00:00 5,7 4,8 6 4 13 7 N 1025,0 9 0,0
19.02.2017 02:00:00 5,9 4,9 3 2 9 5 NNE 1024,6 9 0,0
19.02.2017 01:00:00 6,4 5,2 2 1 8 4 N 1024,3 8 0,0
19.02.2017 00:00:00 7,0 5,8 3 1 9 5 N 1024,2 8 0,2
18.02.2017 23:00:00 8,0 6,6 4 2 12 6 NNW 1024,1 10 0,0
18.02.2017 22:00:00 8,0 6,1 6 3 10 5 N 1023,8 11 0,0
18.02.2017 21:00:00 9,2 7,1 3 2 8 5 N 1023,4 14 0,0
18.02.2017 20:00:00 8,6 6,4 8 4 11 6 NNE 1023,0 16 0,0
18.02.2017 19:00:00 10,1 6,2 5 3 10 5 NE 1022,6 20 0,0
18.02.2017 18:00:00 12,8 7,5 8 5 17 9 E 1022,1 39 0,0
18.02.2017 17:00:00 14,5 7,3 11 6 24 13 E 1021,6 43 0,0
18.02.2017 16:00:00 15,3 7,8 16 9 29 16 E 1021,4 47 0,0
18.02.2017 15:00:00 15,7 4,7 13 7 25 14 E 1021,3 60 0,0
18.02.2017 14:00:00 14,6 3,7 6 3 23 12 N 1022,0 60 0,0
18.02.2017 13:00:00 13,4 4,0 6 3 16 9 ENE 1022,8 60 0,0
18.02.2017 12:00:00 12,4 6,2 4 2 11 6 NW 1023,4 50 0,0
18.02.2017 11:00:00 10,3 7,7 3 2 7 4 W 1023,6 20 0,0
18.02.2017 10:00:00 8,3 6,8 2 1 10 6 ENE 1023,5 18 0,0
18.02.2017 09:00:00 6,8 6,2 6 3 12 7 NNE 1023,2 19 0,0
18.02.2017 08:00:00 4,6 3,9 6 4 11 6 NE 1022,8 10 0,0
18.02.2017 07:00:00 4,5 3,3 3 2 8 4 WSW 1022,2 13 0,0
18.02.2017 06:00:00 5,5 4,5 5 3 8 5 WSW 1022,2 15 0,0
18.02.2017 05:00:00 6,1 5,1 5 3 14 8 WNW 1022,4 19 0,0
18.02.2017 04:00:00 6,7 6,0 10 5 14 7 NNW 1022,8 19 0,0
18.02.2017 03:00:00 6,2 5,3 4 2 9 5 W 1023,4 16 0,0
18.02.2017 02:00:00 5,9 4,9 2 1 5 3 ENE 1023,9 17 0,0
18.02.2017 01:00:00 6,0 4,8 3 2 6 4 W 1024,4 18 0,0
18.02.2017 00:00:00 6,3 4,9 4 2 7 4 NW 1024,5 13 0,0
17.02.2017 23:00:00 7,3 5,8 3 1 9 5 NW 1024,6 19 0,2
17.02.2017 22:00:00 8,4 7,2 10 6 21 12 NE 1024,6 18 0,0
17.02.2017 21:00:00 8,5 7,3 9 5 11 6 N 1024,1 14 0,0
17.02.2017 20:00:00 9,8 8,1 4 2 17 9 W 1023,9 20 0,0
17.02.2017 19:00:00 10,8 8,6 8 4 11 6 WSW 1023,9 20 0,0
17.02.2017 18:00:00 12,6 9,1 10 5 21 11 SW 1023,7 20 0,0
17.02.2017 17:00:00 13,2 9,8 13 7 21 12 S 1023,9 20 0,0
17.02.2017 16:00:00 14,4 10,6 13 7 21 11 S 1024,3 19 -
17.02.2017 15:00:00 14,9 10,3 14 7 19 11 S 1024,9 20 0,0
17.02.2017 14:00:00 14,6 9,8 11 6 21 12 S 1025,9 20 0,0
17.02.2017 13:00:00 15,6 10,4 8 4 21 11 SSW 1026,8 20 0,0
17.02.2017 12:00:00 12,8 9,4 7 4 13 7 WSW 1027,9 20 0,0
17.02.2017 11:00:00 10,2 8,1 3 2 11 6 SE 1028,5 20 0,0
17.02.2017 10:00:00 7,9 7,6 4 2 9 5 E 1028,7 14 0,0
17.02.2017 09:00:00 5,6 5,3 2 1 4 2 E 1028,7 0,3 0,0
17.02.2017 08:00:00 3,7 3,3 0 0 3 2 N 1028,5 0,3 0,0
17.02.2017 07:00:00 4,2 3,8 0 0 6 4 N 1028,4 0,5 0,0
17.02.2017 06:00:00 4,1 3,7 3 2 5 3 NW 1028,5 0,2 0,0
17.02.2017 05:00:00 4,7 4,3 0 0 6 4 N 1028,9 0,4 0,0
17.02.2017 04:00:00 5,0 4,6 4 2 6 3 NE 1029,0 0,2 0,0
17.02.2017 03:00:00 5,3 4,9 2 1 6 4 NNW 1029,5 0,1 0,2
17.02.2017 02:00:00 5,7 5,1 5 3 8 4 W 1030,0 0,1 0,0
17.02.2017 01:00:00 6,1 5,2 3 2 4 2 NNW 1030,4 0,2 0,0

tt = Température de l'air
td = dewpoint
ff = Vitesse du vent
fx = gusts
dd = Direction du vent
ppp = reduced air pressure
vv = visibility
rr = Quantités de précipitations

stations d'obs. à proximité